Date String (YYYY-MM-DD hh:mm:ss) UTC,Instrument flags,Ambient pressure (hPa),Sample flow (lpm),Bypass flow (lpm),Sample temperature (°C),Ambient temperature (°C),ASC tube jacket temperature (°C),LED temperature (°C),Box temperature (°C),Sample RH (%),Span deviation,Mass concentration (μg/m³),Mass concentration (μg/m³),Mass concentration (μg/m³)
DateTimeUTC,F1_M11,P_M11,Q1_M11,Q2_M11,T1_M11,T2_M11,T3_M11,T4_M11,T5_M11,U1_M11,ZSPAN_M11,X0_M11,X2_M11,X1_M11
2021-10-05 12:00:00,,0832.1,5.01,0.00,30.1,29.1,00.0,39.2,31.8,11.4,0000.0,0011.26,0004.46,0003.60
2021-10-05 12:01:00,,0832.1,5.00,0.00,30.1,29.2,00.0,39.2,31.8,11.5,0000.0,0011.94,0004.50,0003.61
2021-10-05 12:02:00,,0832.1,5.00,0.00,30.1,29.1,00.0,39.2,31.8,11.5,0000.0,0012.42,0004.54,0003.63
2021-10-05 12:03:00,,0832.1,5.01,0.00,30.0,29.1,00.0,39.2,31.8,11.6,0000.0,0012.89,0004.59,0003.64
2021-10-05 12:04:00,,0832.1,5.01,0.00,30.0,29.1,00.0,39.2,31.8,12.0,0000.0,0012.94,0004.58,0003.65
2021-10-05 12:05:00,,0832.1,4.98,0.00,30.0,29.1,00.0,39.2,31.8,11.8,0000.0,0013.27,0004.65,0003.66
2021-10-05 12:06:00,,0832.1,5.00,0.00,30.0,29.1,00.0,39.2,31.7,11.8,0000.0,0013.34,0004.66,0003.68
2021-10-05 12:07:00,,0832.1,5.02,0.00,30.0,29.0,00.0,39.2,31.7,11.9,0000.0,0012.99,0004.68,0003.70
2021-10-05 12:08:00,,0832.1,5.00,0.00,30.0,29.0,00.0,39.2,31.7,11.9,0000.0,0013.11,0004.73,0003.73
2021-10-05 12:09:00,,0832.1,5.00,0.00,30.0,29.0,00.0,39.2,31.7,11.9,0000.0,0013.51,0004.80,0003.75
2021-10-05 12:10:00,,0832.1,4.99,0.00,30.0,29.0,00.0,39.1,31.7,11.9,0000.0,0013.66,0004.86,0003.78
2021-10-05 12:11:00,,0832.1,5.01,0.00,30.0,29.0,00.0,39.1,31.7,11.9,0000.0,0013.93,0004.90,0003.81
2021-10-05 12:12:00,,0832.1,5.00,0.00,30.0,29.0,00.0,39.1,31.7,11.9,0000.0,0014.07,0004.98,0003.83
2021-10-05 12:13:00,,0832.1,4.98,0.00,30.0,29.0,00.0,39.1,31.8,11.9,0000.0,0014.35,0005.00,0003.85
2021-10-05 12:14:00,,0832.1,5.00,0.00,30.0,29.0,00.0,39.1,31.7,12.0,0000.0,0014.88,0004.99,0003.88
2021-10-05 12:15:00,,0832.1,5.00,0.00,30.0,29.0,00.0,39.1,31.7,11.9,0000.0,0014.99,0005.01,0003.90
2021-10-05 12:16:00,,0832.1,5.00,0.00,30.0,29.0,00.0,39.1,31.7,12.0,0000.6,0015.06,0004.97,0003.92
2021-10-05 12:17:00,,0832.1,4.99,0.00,29.9,29.0,00.0,39.1,31.7,12.0,0000.2,0015.22,0005.02,0003.92
2021-10-05 12:18:00,,0832.1,5.00,0.00,29.9,29.0,00.0,39.1,31.7,12.0,0000.0,0015.20,0005.03,0003.92
2021-10-05 12:19:00,,0832.1,5.00,0.00,29.9,29.0,00.0,39.1,31.7,11.9,0000.0,0015.13,0004.99,0003.91
2021-10-05 12:20:00,,0832.2,5.00,0.00,30.0,29.0,00.0,39.1,31.7,11.9,0000.5,0014.84,0005.01,0003.90
2021-10-05 12:21:00,,0832.2,5.00,0.00,30.0,29.0,00.0,39.1,31.7,11.9,0003.1,0015.69,0004.98,0003.90
2021-10-05 12:22:00,,0832.1,5.01,0.00,30.0,29.1,00.0,39.1,31.7,12.0,0001.0,0014.40,0004.93,0003.90
2021-10-05 12:23:00,,0832.2,4.98,0.00,30.0,29.1,00.0,39.1,31.7,12.0,0001.6,0013.67,0004.85,0003.88
2021-10-05 12:24:00,,0832.2,5.00,0.00,30.0,29.1,00.0,39.1,31.7,12.1,0000.0,0012.99,0004.82,0003.87
2021-10-05 12:25:00,,0832.2,5.00,0.00,30.0,29.1,00.0,39.1,31.7,12.1,0000.0,0012.17,0004.82,0003.86
2021-10-05 12:26:00,,0832.2,5.01,0.00,29.9,29.0,00.0,39.1,31.7,12.2,0000.0,0012.26,0004.84,0003.85
2021-10-05 12:27:00,,0832.2,5.00,0.00,29.9,29.0,00.0,39.1,31.7,12.2,0000.0,0012.09,0004.85,0003.83
2021-10-05 12:28:00,,0832.2,5.00,0.00,29.9,29.0,00.0,39.1,31.7,12.2,0000.0,0011.76,0004.81,0003.82
2021-10-05 12:29:00,,0832.2,5.01,0.00,29.9,29.0,00.0,39.1,31.7,12.2,0000.0,0011.84,0004.80,0003.80
2021-10-05 12:30:00,,0832.2,5.00,0.00,29.9,29.0,00.0,39.0,31.6,12.2,0000.0,0011.75,0004.79,0003.79
2021-10-05 12:31:00,,0832.2,4.98,0.00,29.9,29.0,00.0,39.0,31.6,12.1,0000.0,0011.36,0004.72,0003.79
2021-10-05 12:32:00,,0832.2,5.00,0.00,29.9,29.0,00.0,39.0,31.6,12.1,0000.0,0010.17,0004.70,0003.77
2021-10-05 12:33:00,,0832.2,5.00,0.00,29.9,28.9,00.0,39.0,31.6,12.2,0000.0,0010.62,0004.69,0003.75
2021-10-05 12:34:00,,0832.2,5.00,0.00,29.8,28.9,00.0,39.0,31.6,12.2,0000.0,0010.67,0004.68,0003.74
2021-10-05 12:35:00,,0832.2,4.99,0.00,29.8,28.9,00.0,39.0,31.6,12.2,0000.0,0010.67,0004.65,0003.74
2021-10-05 12:36:00,,0832.2,4.99,0.00,29.8,28.9,00.0,39.0,31.6,12.2,0000.0,0010.50,0004.64,0003.74
2021-10-05 12:37:00,,0832.3,4.99,0.00,29.8,28.9,00.0,39.0,31.6,12.3,0000.0,0010.16,0004.60,0003.73
2021-10-05 12:38:00,,0832.3,5.00,0.00,29.8,28.9,00.0,39.0,31.6,12.3,0000.5,0010.14,0004.60,0003.72
2021-10-05 12:39:00,,0832.3,4.99,0.00,29.8,28.9,00.0,39.0,31.6,12.3,0002.6,0010.34,0004.61,0003.72
2021-10-05 12:40:00,,0832.2,5.00,0.00,29.8,28.9,00.0,39.0,31.6,12.3,0002.4,0010.15,0004.61,0003.73
2021-10-05 12:41:00,,0832.3,5.02,0.00,29.8,28.9,00.0,38.9,31.5,12.3,0002.0,0009.96,0004.65,0003.74
2021-10-05 12:42:00,,0832.2,5.01,0.00,29.8,28.9,00.0,38.9,31.6,12.3,0002.4,0009.96,0004.62,0003.72
2021-10-05 12:43:00,,0832.3,5.00,0.00,29.8,28.9,00.0,38.9,31.5,12.3,0002.5,0009.81,0004.59,0003.72
2021-10-05 12:44:00,,0832.3,5.00,0.00,29.8,28.9,00.0,38.9,31.5,12.3,0002.5,0009.24,0004.60,0003.74
2021-10-05 12:45:00,,0832.3,4.98,0.00,29.8,28.9,00.0,38.9,31.5,12.3,0002.5,0009.24,0004.62,0003.74
2021-10-05 12:46:00,,0832.3,5.01,0.00,29.8,28.9,00.0,38.9,31.5,12.3,0002.2,0009.65,0004.65,0003.74
2021-10-05 12:47:00,,0832.3,4.99,0.00,29.8,28.9,00.0,38.9,31.5,12.4,0001.8,0010.35,0004.69,0003.74
2021-10-05 12:48:00,,0832.3,5.01,0.00,29.8,28.9,00.0,38.9,31.5,12.4,0002.1,0010.61,0004.68,0003.75
2021-10-05 12:49:00,,0832.3,5.00,0.00,29.8,28.9,00.0,38.9,31.5,12.4,0002.0,0011.85,0004.67,0003.75
2021-10-05 12:50:00,,0832.3,5.00,0.00,29.8,28.9,00.0,38.9,31.5,12.4,0002.2,0011.93,0004.67,0003.75
2021-10-05 12:51:00,,0832.3,5.00,0.00,29.8,28.9,00.0,38.9,31.5,12.3,0001.6,0012.13,0004.71,0003.76
2021-10-05 12:52:00,,0832.3,5.02,0.00,29.8,28.9,00.0,38.9,31.5,12.3,0001.4,0012.15,0004.69,0003.74
2021-10-05 12:53:00,,0832.3,4.99,0.00,29.7,28.8,00.0,38.9,31.5,12.3,0000.8,0012.01,0004.67,0003.74
2021-10-05 12:54:00,,0832.3,5.01,0.00,29.8,28.9,00.0,38.9,31.5,12.3,0000.6,0012.42,0004.66,0003.74
2021-10-05 12:55:00,,0832.3,5.00,0.00,29.8,28.9,00.0,38.9,31.5,12.3,0000.9,0012.57,0004.65,0003.72
2021-10-05 12:56:00,,0832.3,5.01,0.00,29.8,28.9,00.0,38.9,31.5,12.4,0000.7,0012.57,0004.61,0003.71
2021-10-05 12:57:00,,0832.3,5.01,0.00,29.8,28.9,00.0,38.9,31.5,12.4,0000.6,0012.68,0004.62,0003.71
2021-10-05 12:58:00,,0832.3,5.00,0.00,29.8,28.9,00.0,38.9,31.6,12.3,0000.9,0012.08,0004.57,0003.70
2021-10-05 12:59:00,,0832.3,5.00,0.00,29.8,29.0,00.0,38.9,31.6,12.4,0001.9,0012.59,0004.56,0003.70
